Powrót do katalogu

NIMBUS 2 DEB

AktywnyLEO
NORAD 25613·DEBRIS·🇺🇸 United States

Wystrzelony May 15, 1966 z Vandenberg Space Force Base

Loading…

Następne Przeloty (najbliższe 24 godziny)

TLE

ŚwieżeSource: Space-Track

Epoka: Sep 13, 2026, 10:08 UTC

1 25613U 66040F   26256.42240689  .00001544  00000-0  19366-2 0  9990
2 25613 100.4604  57.7210 0028462 201.7514 187.4776 13.65922205951659

Śledź NIMBUS 2 DEB w czasie rzeczywistym z AllMySat

Download on the App Store